Volver al catálogo

NINGXIA-1 5

ActivoCienciaLEO
NORAD 44783·PAYLOAD·🇨🇳 China

Lanzado Nov 13, 2019 desde Taiyuan Satellite Launch Center

Loading…

Próximos Pases (próximas 24 horas)

TLE

ActualizadoSource: Space-Track

Época: Sep 14, 2026, 14:52 UTC

1 44783U 19076E   26257.62013851  .00000042  00000-0  11130-3 0  9992
2 44783  45.0051 139.4993 0010767 213.7970 146.2179 14.02095497350325

Sigue NINGXIA-1 5 en tiempo real con AllMySat

Download on the App Store